SQP456 LUKK-LTAI

Flight info

Callsign SQP456
Flight time N/A
Altitude 34000
Route LIPTA3K LIPTA DCT KODRU DCT GLT/N0461F350 DCT PILAT DCT GOSLO DCT RIXEN UL620 IST UN616 OVACI UT69 BABSA BABSA1M
Aircraft B738/M-SDGRWY/L

Departure

Time 2026-05-09 19:15
Airport Chişinău International Airport (LUKK)

Arrival

Time N/A
Airport Antalya International Airport (LTAI)
Time Latitude Longitude Altitude Speed Heading
2026-05-09 18:58 46.93428 28.92862 349 ft 0 kts 188°
2026-05-09 19:06 46.93436 28.92863 349 ft 4 kts 186°
2026-05-09 19:06 46.93463 28.92865 349 ft 3 kts 183°
2026-05-09 19:07 46.93480 28.92865 357 ft 3 kts 257°
2026-05-09 19:07 46.93479 28.92859 357 ft 2 kts 274°
2026-05-09 19:07 46.93479 28.92862 357 ft 1 kts 274°
2026-05-09 19:10 46.93481 28.92835 354 ft 6 kts 277°
2026-05-09 19:11 46.93455 28.92766 354 ft 11 kts 201°
2026-05-09 19:11 46.93386 28.92749 351 ft 11 kts 187°
2026-05-09 19:11 46.93312 28.92735 357 ft 6 kts 188°
2026-05-09 19:11 46.93300 28.92733 359 ft 0 kts 188°
2026-05-09 19:12 46.93297 28.92732 360 ft 0 kts 187°
2026-05-09 19:12 46.93286 28.92730 358 ft 5 kts 187°
2026-05-09 19:12 46.93229 28.92703 351 ft 12 kts 225°
2026-05-09 19:12 46.93222 28.92573 352 ft 15 kts 278°
2026-05-09 19:13 46.93237 28.92408 356 ft 17 kts 277°
2026-05-09 19:13 46.93251 28.92233 362 ft 19 kts 277°
2026-05-09 19:13 46.93248 28.92068 368 ft 13 kts 243°
2026-05-09 19:13 46.93171 28.92011 369 ft 14 kts 198°
2026-05-09 19:14 46.93075 28.91989 370 ft 15 kts 181°
2026-05-09 19:14 46.92969 28.91992 375 ft 16 kts 179°
2026-05-09 19:14 46.92855 28.91996 380 ft 17 kts 179°
2026-05-09 19:14 46.92763 28.92042 382 ft 14 kts 119°
2026-05-09 19:15 46.92759 28.92195 376 ft 26 kts 86°
2026-05-09 19:15 46.92774 28.92908 356 ft 115 kts 88°
2026-05-09 19:15 46.92799 28.94425 494 ft 172 kts 88°
2026-05-09 19:15 46.92874 28.96293 1029 ft 203 kts 88°
2026-05-09 19:16 46.92916 28.98495 1766 ft 221 kts 90°
2026-05-09 19:16 46.92949 29.00641 2935 ft 215 kts 90°
2026-05-09 19:16 46.92986 29.02935 3273 ft 241 kts 90°
2026-05-09 19:16 46.92891 29.05460 3674 ft 255 kts 108°
2026-05-09 19:17 46.91977 29.07656 4373 ft 256 kts 139°
2026-05-09 19:17 46.90417 29.08869 5162 ft 257 kts 167°
2026-05-09 19:17 46.88688 29.08808 5906 ft 261 kts 195°
2026-05-09 19:17 46.87116 29.07444 6632 ft 268 kts 221°
2026-05-09 19:18 46.85906 29.05349 7336 ft 273 kts 231°
2026-05-09 19:18 46.84807 29.03080 8027 ft 276 kts 233°
2026-05-09 19:18 46.83715 29.00748 8760 ft 278 kts 233°
2026-05-09 19:18 46.82615 28.98405 9433 ft 282 kts 232°
2026-05-09 19:19 46.81498 28.96052 10007 ft 285 kts 232°
2026-05-09 19:19 46.80364 28.93686 10050 ft 285 kts 232°
2026-05-09 19:19 46.79217 28.91311 10070 ft 286 kts 232°